• In Italy
  • List of Countries
  • For 7 days
  • Water Temperature
  • Satellite Maps
  • Weather Map
  • Weather Widgets
  • user-avatar
    Login

    Hourly Weather Canberra

    Today, 20 November, Monday

    Time Temperature Precipitation Wind Pressure Humidity
    00:00 +14°C° 0 mm 2 mps 715 mmHg 93%
    01:00 +14°C° 0 mm 1 mps 715 mmHg 92%
    02:00 +13°C° 0 mm 1 mps 715 mmHg 93%
    03:00 +12°C° 0 mm 1 mps 715 mmHg 94%
    04:00 +11°C° 0 mm 1 mps 714 mmHg 93%
    05:00 +13°C° 0 mm 1 mps 715 mmHg 87%
    06:00 +14°C° 0 mm 2 mps 715 mmHg 81%
    07:00 +15°C° 0 mm 2 mps 716 mmHg 74%
    08:00 +17°C° 0 mm 2 mps 716 mmHg 66%
    09:00 +19°C° 0 mm 3 mps 716 mmHg 57%
    10:00 +22°C° 0 mm 3 mps 716 mmHg 48%
    11:00 +24°C° 0 mm 3 mps 716 mmHg 45%
    12:00 +25°C° 0 mm 3 mps 716 mmHg 42%
    13:00 +26°C° 0 mm 3 mps 715 mmHg 39%
    14:00 +26°C° 0 mm 3 mps 715 mmHg 41%
    15:00 +26°C° 0 mm 3 mps 715 mmHg 43%
    16:00 +25°C° 0 mm 4 mps 714 mmHg 45%
    17:00 +22°C° 0 mm 3 mps 714 mmHg 56%
    18:00 +20°C° 0 mm 3 mps 714 mmHg 67%
    19:00 +17°C° 0 mm 3 mps 714 mmHg 78%
    20:00 +16°C° 0 mm 3 mps 714 mmHg 84%
    21:00 +15°C° 0 mm 2 mps 715 mmHg 90%
    22:00 +14°C° 0 mm 2 mps 715 mmHg 96%
    23:00 +13°C° 0 mm 2 mps 715 mmHg 96%

    Tomorrow, 21 November, Tuesday

    Time Temperature Precipitation Wind Pressure Humidity
    00:00 +13°C° 0 mm 1 mps 715 mmHg 95%
    01:00 +13°C° 0 mm 1 mps 714 mmHg 95%
    02:00 +12°C° 0 mm 1 mps 714 mmHg 95%
    03:00 +12°C° 0 mm 1 mps 714 mmHg 95%
    04:00 +12°C° 0 mm 1 mps 714 mmHg 95%
    05:00 +13°C° 0 mm 1 mps 714 mmHg 89%
    06:00 +15°C° 0 mm 2 mps 715 mmHg 82%
    07:00 +16°C° 0 mm 2 mps 715 mmHg 75%
    08:00 +18°C° 0 mm 2 mps 715 mmHg 64%
    09:00 +20°C° 0 mm 3 mps 715 mmHg 53%
    10:00 +22°C° 0 mm 3 mps 715 mmHg 42%
    11:00 +24°C° 0 mm 3 mps 715 mmHg 39%
    12:00 +25°C° 0 mm 3 mps 715 mmHg 36%
    13:00 +26°C° 0 mm 3 mps 714 mmHg 33%
    14:00 +26°C° 0 mm 3 mps 714 mmHg 34%
    15:00 +26°C° 0 mm 3 mps 713 mmHg 36%
    16:00 +25°C° 0 mm 3 mps 713 mmHg 37%
    17:00 +22°C° 0 mm 3 mps 713 mmHg 47%
    18:00 +20°C° 0 mm 3 mps 713 mmHg 57%
    19:00 +17°C° 0 mm 3 mps 713 mmHg 67%
    20:00 +15°C° 0 mm 2 mps 713 mmHg 75%
    21:00 +14°C° 0 mm 2 mps 713 mmHg 84%
    22:00 +12°C° 0 mm 2 mps 713 mmHg 92%
    23:00 +12°C° 0 mm 1 mps 713 mmHg 94%

    Day after tomorrow, 22 November, Wednesday

    Time Temperature Precipitation Wind Pressure Humidity
    00:00 +11°C° 0 mm 1 mps 712 mmHg 95%
    01:00 +10°C° 0 mm 1 mps 712 mmHg 96%
    02:00 +10°C° 0 mm 1 mps 712 mmHg 96%
    03:00 +10°C° 0 mm 1 mps 712 mmHg 96%
    04:00 +10°C° 0 mm 1 mps 711 mmHg 97%
    05:00 +12°C° 0 mm 1 mps 712 mmHg 90%
    06:00 +13°C° 0 mm 1 mps 712 mmHg 83%
    07:00 +15°C° 0 mm 1 mps 713 mmHg 76%
    08:00 +19°C° 0 mm 1 mps 713 mmHg 64%
    09:00 +20°C° 0 mm 2 mps 713 mmHg 52%
    10:00 +23°C° 0 mm 2 mps 713 mmHg 40%
    11:00 +24°C° 0 mm 2 mps 712 mmHg 37%
    12:00 +26°C° 0 mm 2 mps 712 mmHg 33%
    13:00 +27°C° 0 mm 2 mps 711 mmHg 30%
    14:00 +26°C° 0 mm 2 mps 711 mmHg 32%
    15:00 +26°C° 0 mm 2 mps 710 mmHg 34%
    16:00 +26°C° 0 mm 2 mps 710 mmHg 36%
    17:00 +23°C° 0.2 mm 2 mps 710 mmHg 50%
    18:00 +20°C° 0.2 mm 3 mps 710 mmHg 64%
    19:00 +17°C° 0.2 mm 3 mps 710 mmHg 78%
    20:00 +16°C° 0 mm 3 mps 710 mmHg 84%
    21:00 +15°C° 0 mm 2 mps 710 mmHg 89%
    22:00 +14°C° 0 mm 2 mps 710 mmHg 94%
    23:00 +13°C° 0 mm 1 mps 710 mmHg 95%

    23 November, Thursday

    Time Temperature Precipitation Wind Pressure Humidity
    00:00 +13°C° 0 mm 1 mps 709 mmHg 96%
    01:00 +12°C° 0 mm 1 mps 709 mmHg 98%
    02:00 +12°C° 0 mm 1 mps 709 mmHg 97%
    03:00 +11°C° 0 mm 1 mps 709 mmHg 97%
    04:00 +11°C° 0 mm 1 mps 708 mmHg 97%
    05:00 +13°C° 0 mm 1 mps 709 mmHg 89%
    06:00 +15°C° 0 mm 1 mps 709 mmHg 82%
    07:00 +16°C° 0 mm 1 mps 710 mmHg 74%
    08:00 +20°C° 0 mm 1 mps 710 mmHg 63%
    09:00 +21°C° 0 mm 2 mps 710 mmHg 53%
    10:00 +24°C° 0 mm 2 mps 710 mmHg 42%
    11:00 +25°C° 0.1 mm 2 mps 710 mmHg 41%
    12:00 +26°C° 0.1 mm 2 mps 709 mmHg 41%
    13:00 +26°C° 0.1 mm 3 mps 709 mmHg 41%
    14:00 +26°C° 0 mm 2 mps 708 mmHg 43%
    15:00 +25°C° 0 mm 2 mps 708 mmHg 44%
    16:00 +25°C° 0 mm 2 mps 708 mmHg 46%
    17:00 +23°C° 0 mm 1 mps 708 mmHg 52%
    18:00 +21°C° 0 mm 1 mps 708 mmHg 58%
    19:00 +17°C° 0 mm 0 mps 708 mmHg 65%
    20:00 +19°C° 0.3 mm 1 mps 708 mmHg 69%
    21:00 +18°C° 0.3 mm 1 mps 708 mmHg 73%
    22:00 +16°C° 0.3 mm 1 mps 709 mmHg 77%
    23:00 +16°C° 0.1 mm 1 mps 708 mmHg 79%

    24 November, Friday

    Time Temperature Precipitation Wind Pressure Humidity
    00:00 +16°C° 0.1 mm 1 mps 708 mmHg 80%
    01:00 +15°C° 0.1 mm 1 mps 708 mmHg 82%
    02:00 +15°C° 0 mm 1 mps 708 mmHg 82%
    03:00 +14°C° 0 mm 1 mps 708 mmHg 83%
    04:00 +14°C° 0 mm 1 mps 708 mmHg 83%
    05:00 +16°C° 0 mm 1 mps 708 mmHg 75%
    06:00 +19°C° 0 mm 1 mps 709 mmHg 67%
    07:00 +21°C° 0 mm 1 mps 710 mmHg 59%
    08:00 +24°C° 0 mm 2 mps 710 mmHg 50%
    09:00 +26°C° 0 mm 2 mps 710 mmHg 40%
    10:00 +29°C° 0 mm 3 mps 710 mmHg 30%
    11:00 +29°C° 0 mm 3 mps 710 mmHg 31%
    12:00 +29°C° 0 mm 3 mps 709 mmHg 32%
    13:00 +29°C° 0 mm 3 mps 709 mmHg 32%
    14:00 +28°C° 0 mm 2 mps 709 mmHg 34%
    15:00 +28°C° 0 mm 2 mps 709 mmHg 35%
    16:00 +28°C° 0 mm 2 mps 709 mmHg 37%
    17:00 +26°C° 0.1 mm 1 mps 709 mmHg 45%
    18:00 +24°C° 0.1 mm 1 mps 709 mmHg 53%
    19:00 +21°C° 0.1 mm 1 mps 709 mmHg 61%
    20:00 +20°C° 0.5 mm 1 mps 710 mmHg 68%
    21:00 +18°C° 0.5 mm 2 mps 710 mmHg 75%
    22:00 +16°C° 0.5 mm 2 mps 710 mmHg 82%
    23:00 +16°C° 0.3 mm 2 mps 710 mmHg 83%

    25 November, Saturday

    Time Temperature Precipitation Wind Pressure Humidity
    00:00 +15°C° 0.3 mm 2 mps 710 mmHg 84%
    01:00 +15°C° 0.3 mm 2 mps 710 mmHg 85%
    02:00 +15°C° 0 mm 1 mps 710 mmHg 84%
    03:00 +14°C° 0 mm 1 mps 710 mmHg 82%
    04:00 +14°C° 0 mm 1 mps 710 mmHg 81%
    05:00 +16°C° 0 mm 1 mps 710 mmHg 74%
    06:00 +19°C° 0 mm 1 mps 711 mmHg 68%
    07:00 +21°C° 0 mm 1 mps 711 mmHg 61%
    08:00 +24°C° 0 mm 1 mps 712 mmHg 52%
    09:00 +27°C° 0 mm 1 mps 712 mmHg 43%
    10:00 +30°C° 0 mm 1 mps 712 mmHg 34%
    11:00 +30°C° 0.1 mm 1 mps 712 mmHg 36%
    12:00 +30°C° 0.1 mm 1 mps 711 mmHg 38%
    13:00 +29°C° 0.1 mm 1 mps 711 mmHg 40%
    14:00 +26°C° 2.3 mm 2 mps 710 mmHg 54%
    15:00 +22°C° 2.3 mm 3 mps 710 mmHg 67%
    16:00 +19°C° 2.3 mm 4 mps 709 mmHg 80%
    17:00 +18°C° 1.5 mm 4 mps 710 mmHg 84%
    18:00 +18°C° 1.5 mm 3 mps 711 mmHg 87%
    19:00 +17°C° 1.5 mm 2 mps 711 mmHg 90%
    20:00 +17°C° 0.2 mm 2 mps 711 mmHg 91%
    21:00 +16°C° 0.2 mm 2 mps 712 mmHg 92%
    22:00 +16°C° 0.2 mm 2 mps 712 mmHg 92%
    23:00 +16°C° 0.1 mm 1 mps 711 mmHg 93%
    Show more